Location: Bílinka
(49.3579°N, 14.3767°E)
Time: 22:22:21
(UTC+00:00)

NOAA 16 DEB - Visible Passes

Search period start: 21 February 2024 00:00
Search period end: 02 March 2024 00:00
Orbit: 800 x 831 km, 98.7° (Epoch: 21 February)

Date Brightness Start Highest point End Pass type
(mag) Time Alt. Az. Time Alt. Az. Time Alt. Az.
21 Feb ? 20:20:51 12° N 20:20:51 12° N 20:21:12 10° N visible
22 Feb ? 19:58:19 11° NNE 19:58:19 11° NNE 19:58:35 10° NNE visible
22 Feb ? 21:39:34 10° NNW 21:39:34 10° NNW 21:39:38 10° NNW visible
23 Feb ? 21:17:01 12° N 21:17:01 12° N 21:17:25 10° N visible
24 Feb ? 20:54:27 13° N 20:54:27 13° N 20:55:06 10° N visible
25 Feb ? 20:31:53 14° N 20:31:53 14° N 20:32:40 10° N visible
26 Feb ? 20:09:18 13° NNE 20:09:18 13° NNE 20:10:05 10° N visible
26 Feb ? 21:50:33 12° NNW 21:50:33 12° NNW 21:50:52 10° NNW visible
27 Feb ? 19:46:43 12° NNE 19:46:43 12° NNE 19:47:17 10° NNE visible
27 Feb ? 21:27:58 14° NNW 21:27:58 14° NNW 21:28:40 10° NNW visible
28 Feb ? 21:05:23 15° N 21:05:23 15° N 21:06:21 10° N visible
29 Feb ? 20:42:46 16° N 20:42:46 16° N 20:43:55 10° N visible
01 Mar ? 20:20:08 16° NNE 20:20:08 16° NNE 20:21:22 10° N visible
01 Mar ? 22:01:23 13° NNW 22:01:23 13° NNW 22:01:54 10° NNW visible
